Regional Weather Roundup
Issued by NWS Pendleton, OR

Home | Current Version | Previous Version | Text Only | Print | Product List | Glossary On
Versions: 1 2 3 4 5 6 7 8 9 10 11 12 13 14 15 16 17 18 19 20 21 22 23 24 25 26 27 28 29 30 31 32 33 34 35 36 37 38 39 40 41 42 43 44 45 46 47 48 49 50
000
ASUS46 KPDT 070025
RWRPDT
PENDLETON REGIONAL WEATHER ROUNDUP
NATIONAL WEATHER SERVICE PENDLETON OREGON
400 PM PST FRI MAR 6 2015

NOTE: FAIR INDICATES FEW OR NO CLOUDS BELOW 12,000 FEET WITH NO
SIGNIFICANT WEATHER AND/OR OBSTRUCTIONS TO VISIBILITY.

# INDICATES UNOFFICIAL STATION AND DATA

WAZ520-070110-
EAST SLOPES OF WASHINGTON CASCADES

CITY            SKY/WX      TMP DP  RH  WIND    PRES   REMARKS
#BUMPING DAM    N/A         55  N/A N/A S2      N/A
#CLE ELUM HS    N/A         62  32  32  W7      30.21
#CLE ELUM LAKE  N/A         60  36  41  W1      30.28S
#CLIFFDEL 2NW   N/A         60  27  28  W7      N/A
#GLENWOOD       N/A         65  34  31  S7      30.31
#MANASTASH CYN  N/A         54  38  55  CALM    30.24S
#NILE           N/A         60  35  39  S1      29.56
#RONALD 2NW     N/A         59  39  47  CALM    30.14S
#SNOWDEN        N/A         60  11  14  CALM    N/A
#TEANAWAY 4NE   N/A         64  37  37  SW3     N/A
#TROUT LAKE 1NE N/A         64  20  18  W7      30.32
$$

WAZ521-070110-
SIMCOE HIGHLANDS

CITY            SKY/WX      TMP DP  RH  WIND    PRES   REMARKS
#BICKLETON HS   N/A         60  23  24  SW5     N/A
#CENTERVILLE 4W N/A         62  34  35  NW13    30.02F
#CENTERVILLE 1SWN/A         63  36  36  W8      30.28
#GOLDENDALE 5WNWN/A         62  34  35  SW9     30.24F
#GOODNOE HILLS  N/A         65  33  30  W6      N/A
#LYLE 6NE       N/A         60  36  41  S5      30.28
$$

WAZ026-070110-
KITTITAS VALLEY

CITY            SKY/WX      TMP DP  RH  WIND    PRES   REMARKS
ELLENSBURG AP   SUNNY       66  32  28  SE5     30.27
6HR MIN TEMP:   47; 6HR MAX TEMP:   66;

#ELLENSBURG 3NE N/A         62  35  36  SW1     30.26
#ELLENSBURG 1E  N/A         62  29  28  SE2     N/A
#KITTITAS 4N    N/A         62  39  43  CALM    28.58F
#THORP 6N       N/A         60  37  42  S7      30.32
$$

WAZ027-070110-
YAKIMA VALLEY

CITY            SKY/WX      TMP DP  RH  WIND    PRES   REMARKS
SUNNYSIDE AP    PTCLDY      62  31  31  CALM    30.28F
YAKIMA AIRPORT  SUNNY       64  32  30  CALM    30.29
6HR MIN TEMP:   49; 6HR MAX TEMP:   65;

#DONALD 2NE     N/A         72   3   6  CALM    29.13F
#MABTON         N/A         64  40  41  CALM    30.29
#NACHES 2SW     N/A         60  33  36  E2      30.30
#OUTLOOK DOT    N/A         N/A N/A N/A CALM    N/A
#SELAH 8E       N/A         62  28  27  W5      N/A
#TERRACE HTS    N/A         62  35  36  S1      30.29
#WAPATO 4NE     N/A         72   3   6  CALM    29.13F
#WEST VALLEY    N/A         61  35  38  CALM    30.30
#W YAKIMA       N/A         60  35  39  E1      30.30F
#WHITE SWAN 5E  N/A         61  36  39  CALM    30.32
#WILEY CITY 3W  N/A         62  30  30  S3      30.30
$$

WAZ028-070110-
LOWER COLUMBIA BASIN...WASHINGTON

CITY            SKY/WX      TMP DP  RH  WIND    PRES   REMARKS
PASCO           PTCLDY      64  35  34  CALM    30.30
6HR MIN TEMP:   45; 6HR MAX TEMP:   64;

PROSSER AWOS    N/A         64  36  35  N2      30.32
#BASIN CITY 5SW N/A         63  35  35  SE1     30.30
#BENTON CITY    N/A         62  36  38  NE3     30.22
#CONNELL 5N     N/A         63  33  32  CALM    30.32
#ELTOPIA        N/A         67  36  32  CALM    30.27F
#KAHLOTUS       N/A         64  34  33  W2      30.33
#PATERSON       N/A         62  37  39  CALM    30.29
#PROSSER        N/A         65  33  30  CALM    30.31
#TOUCHET 2S     N/A         67  38  34  CALM    30.29
#WEST PASCO     N/A         64  39  40  E1      30.32
$$

WAZ029-070110-
FOOTHILLS OF THE BLUES...WASHINGTON

CITY            SKY/WX      TMP DP  RH  WIND    PRES   REMARKS
WALLA WALLA AP  PTCLDY      66  30  26  SW3     30.30
6HR MIN TEMP:   56; 6HR MAX TEMP:   66;

#DAYTON SCHOOL  N/A         65  24  21  S2      30.31
#PLEASANT VIEW 1N/A         63  31  30  S3      30.37
#PRESCOTT       N/A         67  34  29  CALM    30.31
#SUDBURY        N/A         67  N/A N/A CALM    N/A
#WAITSBURG 5S   N/A         62  34  35  SW3     30.41
#WAITSBURG 8N   N/A         63  16  16  S6      30.15S
#WALLA WALLA 5E N/A         66  33  29  W2      N/A
#WALLA WALLA U  N/A         66  35  32  CALM    30.31
#WHITMAN MISSIONN/A         66  34  30  NW2     30.32
$$

WAZ030-070110-
BLUE MOUNTAINS...WASHINGTON

CITY            SKY/WX      TMP DP  RH  WIND    PRES   REMARKS
#DIXIE 5SE      N/A         59  26  28  CALM    30.26
#SKI BLUEWOOD   N/A         53  25  33  SW2     30.33
$$

ORZ009-041-WAZ024-070110-
COLUMBIA RIVER GORGE

CITY            SKY/WX      TMP DP  RH  WIND    PRES   REMARKS
THE DALLES AP   PTCLDY      66  34  30  S3      30.28
6HR MIN TEMP:   45; 6HR MAX TEMP:   67;

#ARLINGTON AIRPON/A         64  36  35  NW1     29.99S
#ARLINGTON HS   N/A         60  38  44  S1      30.21F
#MOSIER 1S      N/A         64  28  25  E3      30.27S
#MURDOCK        N/A         64  43  46  NW2     30.29F

$$

ORZ510-070110-
NORTH CENTRAL OREGON

CITY            SKY/WX      TMP DP  RH  WIND    PRES   REMARKS
#DUFUR 9E       N/A         58  28  32  NW2     30.35
#GRASS VALLEY 1SN/A         63  36  36  N2      30.33
#MAUPIN SCHOOL  N/A         68  30  24  CALM    30.29
#MORO SCHOOL    N/A         62  32  32  NW5     30.30
#TYGH VALLEY 2NEN/A         67  36  32  N1      30.29
#WAPANITIA AIRPON/A         64  32  30  NE2     30.33
#WASCO 5NE      N/A         65  34  31  CALM    30.32
$$

ORZ511-070110-
CENTRAL OREGON

CITY            SKY/WX      TMP DP  RH  WIND    PRES   REMARKS
BEND AIRPORT    SUNNY       64  19  17  N6      30.29F
PRINEVILLE AP   SUNNY       64  16  15  N7      30.30F
#BEND 6E        N/A         65  16  15  CALM    30.23S
#BEND 1SW       N/A         61  22  22  NE3     N/A
#BEND-AWBREY    N/A         65  23  20  N1      30.30F
#BEND-KIM LN    N/A         65  24  21  N2      30.28
#CROOKED RVR RANN/A         64  29  27  E3      30.29F
#CULVER         N/A         65  25  22  N2      30.26
#LAKE BILLY CHINN/A         63   3   9  N6      30.32S
#POWELL BUTTE   N/A         65  27  24  E1      29.91F
#PRINEVILLE 3N  N/A         66  22  19  CALM    30.27F
#WARM SPRINGS   N/A         67  34  29  CALM    30.24

$$


ORZ509-070110-
EAST SLOPES OF OREGON CASCADES

CITY            SKY/WX      TMP DP  RH  WIND    PRES   REMARKS
#CAMP SHERMAN   N/A         68  15  13  CALM    30.34
#LA PINE 4NW    N/A         64  22  20  CALM    30.40
#MT BACHELOR-MIDN/A         46  13  26  CALM    N/A
#SISTERS AIRPOR N/A         68  29  23  N1      30.17
#SISTERS ODOT   N/A         67  N/A N/A CALM    N/A
#SISTERS 3N     N/A         63  22  21  N6      30.28S
#SUNRIVER       N/A         64  16  15  NE1     30.24S

$$

ORZ044-070110-
LOWER COLUMBIA BASIN...OREGON

CITY            SKY/WX      TMP DP  RH  WIND    PRES   REMARKS
HERMISTON       PTCLDY      65  31  28  CALM    30.29
6HR MIN TEMP:   48; 6HR MAX TEMP:   66;

#BOARDMAN 8SW   N/A         65  41  41  N1      30.28F
#ECHO 8SW       N/A         67  35  30  CALM    30.28
#IONE SCHOOL    N/A         66  31  27  CALM    30.28
#IRRIGON 4NW    N/A         61  36  39  NE2     N/A
#UMATILLA SCHOOLN/A         64  44  48  CALM    30.32
#UMATILLA       N/A         64  36  35  CALM    30.27
$$

ORZ507-070110-
NORTHERN FOOTHILLS OF THE BLUES

CITY            SKY/WX      TMP DP  RH  WIND    PRES   REMARKS
PENDLETON AIRPT PTCLDY      63  27  25  CALM    30.30
6HR MIN TEMP:   54; 6HR MAX TEMP:   64;

#ATHENA         N/A         62  33  34  NE2     30.34
#HELIX SCHOOL   N/A         64  30  28  CALM    30.33
#HELIX 3N       N/A         62  31  31  N2      30.26
#HELIX 6SW      N/A         62  30  30  W3      30.29
#HOLDMAN 5SE    N/A         65  34  31  E1      30.29
#HOLDMAN 6E     N/A         62  30  30  NE3     30.13
#M-F FERNDALE   N/A         70  34  26  CALM    30.29
#M-F GROVE ELEM N/A         64  30  28  N1      30.28
#M-FREEWATER 5SEN/A         65  36  34  CALM    30.29
#PENDLETON DNTN N/A         67  32  27  W1      30.28
#PDT AQUATIC CTRN/A         69  37  31  NW2     30.31
#PENDLETON 5NE  N/A         65  35  33  CALM    30.25
#PDT SUNRIDGE   N/A         65  33  30  CALM    30.32
#PENDLETON 7NW  N/A         63  38  39  CALM    N/A
#PILOT ROCK     N/A         63  30  29  CALM    30.32
#TUTUILLA       N/A         63  31  30  CALM    30.33
#UMAPINE 2E     N/A         67  37  33  CALM    30.27
#WESTON SCHOOL  N/A         61  27  27  E5      30.28

$$

ORZ508-070110-
SOUTHERN FOOTHILLS OF THE BLUES

CITY            SKY/WX      TMP DP  RH  WIND    PRES   REMARKS
LEXINGTON       PTCLDY      64  30  28  CALM    30.30F
#AJAX           N/A         62  28  27  NW1     30.22
#CONDON SCHOOL  N/A         63  32  31  CALM    30.25
#CONDON 5W      N/A         61  28  28  W1      30.29
#FOSSIL SCHOOL  N/A         64  25  23  W2      30.25
#HEPPNER EOC    N/A         63  33  32  W1      30.27
#LEXINGTON 2SE  N/A         67  33  28  CALM    30.27
#MIKKALO        N/A         64  34  33  N1      30.29
#OLEX 4N        N/A         65  34  31  NW1     30.28
#RUGGS 5NE      N/A         65  33  30  N3      30.46
#RUGGS 2SW      N/A         60  33  36  NE3     30.33

$$

ORZ502-503-070110-
BLUE MOUNTAINS

CITY            SKY/WX      TMP DP  RH  WIND    PRES   REMARKS
MEACHAM         SUNNY       57  25  29  CALM    30.34
#HEPPNER 15SE   N/A         53  31  43  CALM    30.26F
#LONG CREEK HS  N/A         56  28  34  CALM    30.29
#PIKES PEAK     N/A         56  29  35  SW2     27.99
#TOLLGATE       N/A         51  25  36  CALM    30.27
#TROY SCHOOL    N/A         68  33  27  E5      30.14
$$

ORZ505-070110-
JOHN DAY BASIN

CITY            SKY/WX      TMP DP  RH  WIND    PRES   REMARKS
JOHN DAY        SUNNY       62  25  24  W5      30.33S
#JOHN DAY KJDY  N/A         60  60  100 SW3     30.25
#DAYVILLE SCHOOLN/A         67  26  21  CALM    30.24
#MITCHELL       N/A         64  37  37  CALM    30.41
#MONUMENT HS    N/A         64  26  23  CALM    30.28
#MT. VERNON 5SE N/A         59  25  27  W1      30.29
#SPRAY SCHOOL   N/A         66  N/A N/A CALM    N/A
#WINLOCK        N/A         65  28  25  CALM    30.36F
$$

ORZ506-070110-
OCHOCO AND JOHN DAY HIGHLANDS

CITY            SKY/WX      TMP DP  RH  WIND    PRES   REMARKS
#PAULINA SCHOOL N/A         65  24  21  SW1     30.27
#PRAIRIE CITY   N/A         64  21  19  SW3     30.22
#SENECA         N/A         56  N/A N/A SW1     N/A
#SENECA 9NW     N/A         59  27  29  CALM    30.42
$$

ORZ049-070110-
GRANDE RONDE VALLEY

CITY            SKY/WX      TMP DP  RH  WIND    PRES   REMARKS
LA GRANDE       PTCLDY      63  25  23  S5      30.30S
#COVE           N/A         63  30  29  CALM    30.31
#COVE SCHOOL    N/A         64  24  22  SW1     30.27
#ELGIN 3N       N/A         61  23  23  S6      30.26S
#ELGIN 1E       N/A         65  28  25  CALM    N/A
#IMBLER SCHOOL  N/A         61  28  28  CALM    30.24S
#LA GRANDE ELEM N/A         62  24  23  CALM    30.30S
#UNION 1S       N/A         63  27  25  S6      30.26
$$

ORZ050-070110-
WALLOWA COUNTY

CITY            SKY/WX      TMP DP  RH  WIND    PRES   REMARKS
#IMNAHA SCHOOL  N/A         62  26  25  VRB7    30.27
#IMNAHA 10S     N/A         66  21  18  S7      30.26
#JOSEPH 3N      N/A         57  21  24  NW8     30.32
#JOSEPH 3W      N/A         49  24  37  SW2     30.15F
#LOSTINE        N/A         63  25  23  CALM    30.19
#MT HOWARD 8000 N/A         43  N/A N/A CALM    30.42
#PROMISE 1S     N/A         58  27  30  E6      30.43
#SHEEP RDG 7000 N/A         45  18  33  CALM    30.36



$$



USA.gov is the U.S. government's official web portal to all federal, state and local government web resources and services.